CW0621 Weather Reports


Display with metric or nautical units.
time (UTC)temp
F
wind
direction
speed
MPH
gust
MPH
rain 1hr
in
rain 24hr
in
rain mn
in
humidity
%
barometer
mb
20260509011527 54 176 0.0 0.0 0.00 0.00 0.00 85 1007.9
20260509010055 55 253 0.0 0.0 0.00 0.00 0.00 84 1007.8
20260509004530 55 248 0.0 0.0 0.00 0.00 0.00 81 1007.6
20260509003054 55 248 0.0 0.0 0.00 0.00 0.00 79 1007.6
20260509001521 56 248 0.0 0.0 0.00 0.00 0.00 77 1007.5
20260508234516 58 86 0.0 0.0 0.00 0.00 0.00 73 1007.4
20260508233046 58 72 0.0 0.0 0.00 0.00 0.00 72 1007.5
20260508231512 58 206 0.0 0.0 0.00 0.00 0.00 71 1007.7
20260508230041 59 67 0.0 0.0 0.00 0.00 0.00 70 1007.7
20260508224508 59 201 0.0 0.0 0.00 0.00 0.00 69 1007.8
20260508223038 60 240 0.0 0.0 0.00 0.00 0.00 66 1007.8
20260508221503 60 298 0.0 0.0 0.00 0.00 0.00 64 1007.7
20260508220038 60 269 0.0 0.0 0.00 0.00 0.00 63 1007.8
20260508214502 60 279 0.0 0.0 0.00 0.00 0.00 65 1007.8
20260508213044 60 141 0.0 0.0 0.00 0.00 0.00 63 1007.9
20260508211501 61 219 0.0 0.0 0.00 0.00 0.00 61 1008.0
20260508210034 61 321 0.0 0.0 0.00 0.00 0.00 62 1008.0
20260508204619 63 262 0.0 0.0 0.00 0.00 0.00 61 1008.1
20260508203029 63 340 0.0 0.0 0.00 0.00 0.00 60 1008.3
20260508201606 63 245 0.0 0.0 0.00 0.00 0.00 60 1008.5
20260508200014 62 22 0.0 0.0 0.00 0.00 0.00 64 1008.8
20260508194538 63 160 0.0 3.0 0.00 0.00 0.00 61 1009.0
20260508193103 64 132 0.0 0.0 0.00 0.00 0.00 59 1009.2
20260508191531 64 143 0.0 0.0 0.00 0.00 0.00 57 1009.4
20260508190103 63 162 0.0 0.0 0.00 0.00 0.00 57 1009.5
20260508184521 64 260 0.0 0.0 0.00 0.00 0.00 50 1009.8
20260508183052 63 129 0.0 0.0 0.00 0.00 0.00 56 1010.0
20260508181537 62 265 0.0 0.0 0.00 0.00 0.00 57 1010.1
20260508180050 62 124 0.0 0.0 0.00 0.00 0.00 56 1010.4
20260508174512 63 16 0.0 0.0 0.00 0.00 0.00 50 1010.6
20260508173031 62 164 0.0 0.0 0.00 0.00 0.00 54 1010.8
20260508171604 63 127 0.0 0.0 0.00 0.00 0.00 51 1011.0
20260508170025 61 259 0.0 0.0 0.00 0.00 0.00 53 1011.2
20260508164556 60 256 0.0 0.0 0.00 0.00 0.00 55 1011.4
20260508163016 59 264 0.0 0.0 0.00 0.00 0.00 61 1011.7
20260508161546 59 160 0.0 1.0 0.00 0.00 0.00 59 1011.8
20260508160011 57 246 0.0 0.0 0.00 0.00 0.00 68 1011.7
20260508154539 56 125 0.0 0.0 0.00 0.00 0.00 71 1011.6
20260508153100 56 147 0.0 0.0 0.00 0.00 0.00 75 1011.8
20260508151524 55 236 0.0 0.0 0.00 0.00 0.00 75 1012.0
20260508150049 54 259 0.0 0.0 0.00 0.00 0.00 78 1012.1
20260508144513 53 140 0.0 0.0 0.00 0.00 0.00 79 1012.2
20260508143042 53 251 0.0 0.0 0.00 0.00 0.00 80 1012.4
20260508141510 53 148 0.0 0.0 0.00 0.00 0.00 79 1012.2
20260508140034 52 181 0.0 0.0 0.00 0.00 0.00 81 1012.3
20260508134601 51 74 0.0 0.0 0.00 0.00 0.00 84 1012.2
20260508133026 50 110 0.0 0.0 0.00 0.00 0.00 86 1012.4
20260508131603 49 198 0.0 0.0 0.00 0.00 0.00 88 1012.3
20260508130018 48 137 0.0 0.0 0.00 0.00 0.00 90 1012.4
20260508124548 47 56 0.0 0.0 0.00 0.00 0.00 92 1012.5
20260508123015 46 101 0.0 0.0 0.00 0.00 0.00 94 1012.5
20260508121545 45 145 0.0 0.0 0.00 0.00 0.00 95 1012.4
20260508120011 44 188 0.0 0.0 0.00 0.00 0.00 96 1012.4
20260508114536 43 127 0.0 0.0 0.00 0.00 0.00 96 1012.3
20260508113004 42 212 0.0 0.0 0.00 0.00 0.00 96 1012.1
20260508111550 42 157 0.0 0.0 0.00 0.00 0.00 96 1012.0
20260508110005 41 157 0.0 0.0 0.00 0.00 0.00 96 1011.9
20260508104531 40 129 0.0 0.0 0.00 0.00 0.00 96 1011.9
20260508103135 40 83 0.0 0.0 0.00 0.00 0.00 95 1011.8
20260508101537 39 83 0.0 0.0 0.00 0.00 0.00 95 1011.7
20260508100054 40 83 0.0 0.0 0.00 0.00 0.00 95 1011.8
20260508094521 40 83 0.0 0.0 0.00 0.00 0.00 95 1011.8
20260508093051 40 82 0.0 0.0 0.00 0.00 0.00 95 1011.8
20260508091517 40 82 0.0 0.0 0.00 0.00 0.00 95 1011.7
20260508090104 40 82 0.0 0.0 0.00 0.00 0.00 95 1011.7
20260508084521 41 82 0.0 0.0 0.00 0.00 0.00 95 1011.7
20260508083112 40 82 0.0 0.0 0.00 0.00 0.00 95 1011.7
20260508081522 40 82 0.0 0.0 0.00 0.00 0.00 95 1011.8
20260508080053 40 82 0.0 0.0 0.00 0.00 0.00 94 1011.9
20260508074518 40 82 0.0 0.0 0.00 0.00 0.00 94 1011.9
20260508073046 40 82 0.0 0.0 0.00 0.00 0.00 94 1011.8
20260508071510 41 82 0.0 0.0 0.00 0.00 0.00 93 1011.9
20260508070039 41 82 0.0 0.0 0.00 0.00 0.00 93 1012.0
20260508064505 42 82 0.0 0.0 0.00 0.00 0.00 93 1012.0
20260508063034 42 82 0.0 0.0 0.00 0.00 0.00 93 1012.2
20260508061503 43 82 0.0 0.0 0.00 0.00 0.00 93 1012.2
20260508060031 43 82 0.0 0.0 0.00 0.00 0.00 93 1012.2
20260508054603 43 81 0.0 0.0 0.00 0.00 0.00 93 1012.3
20260508053028 42 81 0.0 0.0 0.00 0.00 0.00 92 1012.4
20260508051556 43 81 0.0 0.0 0.00 0.00 0.00 93 1012.3
20260508050024 42 75 0.0 0.0 0.00 0.00 0.00 93 1012.4
20260508044550 42 70 0.0 0.0 0.00 0.00 0.00 92 1012.3
20260508043015 42 70 0.0 0.0 0.00 0.00 0.00 92 1012.4
20260508041544 41 70 0.0 0.0 0.00 0.00 0.00 91 1012.4
20260508040017 41 147 0.0 0.0 0.00 0.00 0.00 89 1012.4
20260508034539 42 148 0.0 0.0 0.00 0.00 0.00 88 1012.2
20260508033001 42 147 0.0 0.0 0.00 0.00 0.00 86 1012.2
20260508031532 43 147 0.0 0.0 0.00 0.00 0.00 85 1012.3
20260508030113 45 147 0.0 0.0 0.00 0.00 0.00 83 1012.4
20260508024540 46 239 0.0 0.0 0.00 0.00 0.00 82 1012.6
20260508023054 46 171 0.0 0.0 0.00 0.00 0.00 81 1012.6
20260508021520 46 143 0.0 0.0 0.00 0.00 0.00 82 1012.5
20260508020052 47 139 0.0 0.0 0.00 0.00 0.00 81 1012.6
20260508014533 46 139 0.0 0.0 0.00 0.00 0.00 79 1012.6
20260508013047 46 139 0.0 0.0 0.00 0.00 0.00 78 1012.4